#timestamp,LO_Frequency,Hit,StdDev 
1581159615.8,286046990.6,P
1581159635.6,286046985.7,P
1581159655.5,286046983.8,Y
1581159675.3,286046994.0,P
1581159695.1,286046993.5,P
1581159715.9,286046992.6,P
1581159735.7,286046990.7,Y
1581159755.6,286046991.8,P
1581159775.4,286046990.8,P
1581159795.2,286046991.6,P
1581159815.1,286046993.2,Y
1581159816.0,286046993.2,P
1581159835.8,286046999.7,N
1581159855.7,286047002.7,N
1581159875.5,286046996.8,N
1581159895.3,286046994.1,N
1581159915.2,286046995.3,N
1581159935.0,286046995.6,N
1581159935.9,286046995.6,N
1581159955.7,286046995.6,N
1581159975.6,286046996.1,N
1581159995.4,286046992.2,N
1581160015.3,286046991.9,N
1581160035.1,286046986.3,Y
1581160055.8,286046994.7,P
1581160075.7,286046991.7,P
1581160095.5,286046993.8,P
1581160115.4,286046990.8,Y
1581160135.2,286046993.9,P
1581160155.0,286046990.7,P
1581160155.9,286046990.7,P
1581160175.8,286046985.4,Y
1581160195.6,286046998.0,P
1581160215.4,286046996.5,N
1581160235.3,286046998.5,N
1581160255.1,286047002.5,N
1581160275.9,286047003.0,N
1581160295.7,286047003.7,N
1581160315.5,286047003.8,N
1581160335.4,286047007.0,N
1581160355.2,286047005.2,N
1581160375.0,286047000.6,N
1581160376.0,286047000.6,N
1581160395.8,286047000.8,N
1581160415.6,286047000.7,N
1581160435.5,286046998.1,N
1581160455.3,286046998.0,N
1581160475.1,286046998.0,N
1581160495.9,286046993.4,N
1581160515.7,286046994.3,N
1581160535.6,286046993.9,N
1581160555.4,286046993.9,N
1581160575.2,286046993.1,N
1581160595.1,286046993.9,N
1581160596.0,286046993.9,N
1581160615.8,286046991.0,N
1581160635.6,286046989.3,N
1581160655.5,286046987.7,N
1581160675.3,286046987.4,N
1581160695.2,286046986.5,N
1581160715.9,286046980.3,Y
1581160735.7,286046981.3,P
1581160755.6,286046977.3,N
1581160775.4,286046979.7,N
1581160795.3,286046979.8,N
1581160815.1,286046980.2,N
1581160816.0,286046980.2,Y
1581160835.8,286046993.8,P
1581160855.7,286046994.6,N
1581160875.5,286046994.6,N
1581160895.4,286046992.6,N
1581160915.2,286046990.6,N
1581160935.0,286046990.5,N
1581160935.9,286046990.5,N
1581160955.8,286046988.9,Y
1581160975.6,286046997.9,P
1581160995.4,286046996.8,N
1581161015.3,286046999.0,N
1581161035.1,286046998.3,N
1581161055.9,286046992.8,N
1581161075.7,286046990.9,Y
1581161095.5,286046991.4,P
1581161115.4,286046989.8,P
1581161135.2,286046988.7,P
1581161155.1,286046991.6,Y
1581161156.0,286046991.6,P
1581161175.8,286046999.7,P
1581161195.6,286047011.9,P
1581161215.5,286047004.6,N
1581161235.3,286047005.4,N
1581161255.1,286047001.8,N
1581161275.9,286046996.1,N
1581161295.7,286046990.3,N
1581161315.6,286046992.7,N
1581161335.4,286046992.4,N
1581161355.2,286046993.0,N
1581161375.1,286046994.1,N
1581161376.0,286046994.1,N
1581161395.8,286046991.6,N
1581161415.7,286046986.9,N
1581161435.5,286046988.1,N
1581161455.3,286046991.4,N
1581161475.2,286046992.7,N
1581161495.0,286046987.6,N
1581161495.9,286046987.6,N
1581161515.7,286046984.0,N
1581161535.6,286046985.4,N
1581161555.4,286046988.0,N
1581161575.3,286046985.6,N
1581161595.1,286046986.0,N
1581161596.0,286046986.0,N
1581161615.8,286046986.8,N
1581161635.7,286046983.3,N
1581161655.5,286046981.5,N
1581161675.3,286046980.0,N
1581161695.2,286046979.7,N
1581161715.0,286046975.8,Y
1581161715.9,286046975.8,P
1581161735.8,286046983.8,N
1581161755.6,286046987.5,N
1581161775.4,286046989.1,N
1581161795.3,286046985.3,N
1581161815.1,286046985.8,N
1581161835.9,286046990.3,N
1581161855.7,286046991.0,N
1581161875.5,286046994.7,N
1581161895.4,286046992.1,N
1581161915.2,286046991.5,N
1581161935.0,286046987.0,N
1581161935.9,286046987.0,N
1581161955.8,286046987.9,N
1581161975.6,286046985.3,Y
1581161995.5,286047001.2,P
1581162015.3,286046996.6,N
1581162035.1,286046995.2,N
1581162055.9,286046994.1,N
1581162075.7,286046996.1,N
1581162095.6,286046995.2,N
1581162115.4,286046998.0,N
1581162135.2,286046997.5,N
1581162155.1,286047001.0,N
1581162156.0,286047001.0,N
1581162175.8,286047008.0,N
1581162195.7,286047011.7,N
1581162215.5,286047008.5,N
1581162235.3,286047004.7,N
1581162255.2,286047003.4,N
1581162275.0,286047000.4,N
1581162275.9,286047000.4,N
1581162295.7,286047001.0,N
1581162315.6,286047000.2,N
1581162335.4,286047000.4,N
1581162355.3,286046997.4,N
1581162375.1,286046999.0,N
1581162376.0,286046999.0,N
1581162395.8,286046993.8,N
1581162415.7,286046993.7,N
1581162435.5,286046998.9,N
1581162455.4,286046998.4,N
1581162475.2,286046993.5,N
1581162495.0,286046992.2,N
1581162495.9,286046992.2,N
1581162515.8,286046987.7,N
1581162535.6,286046986.1,N
1581162555.4,286046989.2,N
1581162575.3,286046986.0,N
1581162595.1,286046989.4,N
1581162615.9,286046992.7,N
1581162635.7,286046988.8,N
1581162655.5,286046993.1,N
1581162675.4,286046989.9,N
1581162695.2,286046984.5,N
1581162715.0,286046982.9,N
1581162716.0,286046982.9,N
1581162735.8,286046979.2,Y
1581162755.6,286046985.0,P
1581162775.5,286046985.7,P
1581162795.3,286046981.3,P
1581162815.1,286046978.0,Y
1581162835.9,286046990.5,P
1581162855.7,286046994.5,N
1581162875.6,286046994.8,N
1581162895.4,286046991.6,N
1581162915.2,286046987.5,Y
1581162935.1,286046995.1,P
1581162936.0,286046995.1,N
1581162955.8,286046999.3,N
1581162975.7,286046999.7,N
1581162995.5,286047002.7,N
1581163015.3,286047002.5,N
1581163035.2,286047001.3,N
1581163055.0,286047004.2,N
1581163055.9,286047004.2,N
1581163075.7,286047005.9,N
1581163095.6,286047003.4,N
1581163115.4,286047007.1,N
1581163135.3,286047005.9,N
1581163155.1,286047008.3,N
1581163156.0,286047008.3,N
1581163175.8,286047008.8,N
1581163195.7,286047008.8,N
